[[{"header":{"parameterUnit":"m.s-1","parameterCategory":1,"la1":30.2991,"la2":30.254,"lo1":-89.0895,"lo2":-89.0444,"dy":0.0017,"dx":0.0017,"nx":28,"ny":28,"refTime":"2024-08-21T09:00:00:Z","depth":0,"parameterNumber":2,"parameterNumberName":"U-component_of_WINDS"},"data":[0,0,0,0,0,0,0,0,0,0,0,0,0,0,0,0,0,0,0,0,0,0,0,0,0,0,0,0,0,0,0,0,0,0,0,0,0,0,0,0,0,0,0,0,0,0,0,0,0,0,0,0,0,0,0,0,0,0,-1.0083,-1.0082,0,-1.0022,-1.0021,-1.002,-0.9958,-0.9957,-0.9956,-0.9955,-0.9893,-0.9892,-0.9891,0,0,0,0,0,0,0,0,0,0,0,0,0,-1.0144,-1.0144,-1.0083,-1.0082,-1.0081,-1.0022,-1.0021,-1.002,-0.9958,-0.9957,-0.9956,-0.9955,-0.9893,-0.9892,-0.9891,0,0,0,0,0,0,0,0,0,0,0,0,0,-1.0104,-1.0143,-1.0083,-1.0043,-1.0039,-1.0022,-1.0021,-1.002,-0.9958,-0.9957,-0.9955,-0.9954,-0.9893,-0.9892,-0.9891,-0.9908,0,0,-0.9887,-0.9886,0,0,0,0,0,0,0,0,-1.0106,-1.0102,-1.0049,-1.0046,-1.0041,-0.9996,-1.002,-0.9982,-0.9958,-0.9989,-0.9955,-0.9954,-0.9928,-0.9924,-0.9915,-0.9905,-0.9903,-0.9887,-0.9886,-0.9885,-0.9885,0,0,0,0,0,0,0,-1.0109,-1.0104,-1.0058,-1.0049,-1.0044,-1.0028,-1.0021,-1.0012,-0.9966,-0.9986,-0.9981,-0.9975,-0.9925,-0.9917,-0.9913,-0.9902,-0.9887,-0.9885,-0.9885,-0.9884,-0.9904,-0.9905,0,0,0,0,0,0,-1.0118,-1.0107,-1.006,-1.0057,-1.0071,-1.0028,-1.002,-1.0012,-0.9966,-0.9958,-0.9976,-0.9972,-0.9919,-0.9915,-0.9911,-0.9929,-0.9885,-0.9884,-0.9883,-0.9903,-0.9904,-0.9906,0,0,0,0,0,0,-1.012,-1.0115,-1.0063,-1.008,-1.0073,-1.0028,-1.0019,-1.0011,-1.0002,-0.9959,-0.995,-0.9976,-0.9918,-0.9913,-0.9909,-0.9926,-0.9883,-0.9882,-0.9901,-0.9903,-0.9905,-0.9966,0,0,0,0,0,0,-1.0122,-1.0116,-1.0122,-1.0081,-1.0072,-1.0063,-1.002,-1.0011,-1.0,-0.9995,-0.9956,-0.9948,-0.9917,-0.9912,-0.9908,-0.9923,-0.9881,-0.9899,-0.9902,-0.9904,-0.9962,-0.997,-0.9976,0,0,0,0,0,-1.0124,-1.0142,-1.0123,-1.0117,-1.0079,-1.0064,-1.0059,-1.0022,-1.0002,-1.0008,-0.998,-0.995,-0.9925,-0.9912,-0.9907,-0.9923,-0.9898,-0.9901,-0.9904,-0.9959,-0.9968,-0.9976,0,0,0,0,0,0,-1.0186,-1.0135,-1.0114,-1.0119,-1.0096,-1.0054,-1.006,-1.0033,-1.0016,-1.0011,-0.9966,-0.9958,-0.996,-0.9941,-0.9928,-0.9937,-0.9907,-0.9909,-0.995,-0.9959,-0.9966,-0.9971,-0.988,0,0,0,0,0,-1.02,-1.0192,-1.0148,-1.0156,-1.0146,-1.0105,-1.0097,-1.0071,-1.0046,-1.0036,-1.0008,-0.9985,-0.9971,-0.9964,-0.9949,-0.9958,-0.9949,-0.9966,-0.9973,-0.9979,-0.9982,-0.9986,-0.9994,-0.9915,-0.9915,-0.9915,0,0,-1.0229,-1.02,-1.0198,-1.0168,-1.0148,-1.014,-1.0098,-1.0092,-1.0086,-1.0035,-1.0031,-1.0009,-0.998,-0.9984,-0.9984,-0.9967,-1.0002,-0.9983,-0.9988,-0.9988,-0.999,-0.9998,-1.0004,-0.9917,-0.9917,-0.9916,0,0,-1.0278,-1.0256,-1.026,-1.0241,-1.021,-1.0183,-1.0184,-1.0145,-1.0129,-1.0124,-1.0085,-1.0078,-1.0056,-1.0037,-1.0025,-1.0067,-1.0038,-1.0063,-1.01,-1.0104,-1.011,-1.0116,-1.0132,-1.0138,-1.0066,-1.0066,-1.0066,0,-1.0318,-1.0306,-1.0266,-1.0263,-1.0251,-1.0204,-1.0209,-1.0191,-1.0158,-1.015,-1.0132,-1.0104,-1.0081,-1.008,-1.009,-1.0081,-1.0082,-1.0068,-1.0113,-1.0118,-1.0122,-1.0137,-1.0143,-1.0069,-1.0069,-1.0068,-1.0068,0,-1.0357,-1.035,-1.0357,-1.0326,-1.0315,-1.0315,-1.0275,-1.0268,-1.0243,-1.0217,-1.0213,-1.0183,-1.0163,-1.016,-1.0135,-1.0155,-1.0146,-1.0121,-1.009,-1.0133,-1.0147,-1.0152,-1.0074,-1.0072,-1.0072,-1.0071,0,0,-1.0445,-1.0392,-1.0395,-1.0381,-1.0343,-1.0336,-1.0335,-1.0314,-1.031,-1.0287,-1.0286,-1.0268,-1.0244,-1.023,-1.0202,-1.0206,-1.0243,-1.0181,-1.0179,-1.0194,-1.0264,-1.0285,-1.0292,-1.0223,-1.0224,-1.0225,-1.0267,0,-1.0489,-1.0484,-1.0448,-1.0453,-1.0445,-1.04,-1.0399,-1.0376,-1.0352,-1.0342,-1.0315,-1.0304,-1.0273,-1.0264,-1.0266,-1.0238,-1.0256,-1.0234,-1.0221,-1.0221,-1.0232,-1.0298,-1.0319,-1.0361,-1.0272,-1.0273,-1.0273,0,-1.054,-1.0522,-1.0527,-1.0489,-1.0485,-1.0484,-1.0463,-1.0453,-1.0426,-1.0408,-1.0393,-1.0361,-1.0357,-1.0327,-1.0321,-1.0306,-1.0299,-1.0284,-1.0285,-1.0283,-1.0251,-1.03,-1.0373,-1.038,-1.0281,-1.028,-1.028,0,-1.0605,-1.0581,-1.0581,-1.057,-1.0526,-1.0527,-1.0509,-1.048,-1.047,-1.0451,-1.0444,-1.0425,-1.0414,-1.04,-1.0364,-1.0345,-1.0363,-1.0329,-1.0348,-1.0349,-1.0355,-1.0356,-1.043,-1.0348,-1.0348,-1.0348,-1.0348,0,-1.0659,-1.0664,-1.061,-1.061,-1.0614,-1.0572,-1.0577,-1.0555,-1.053,-1.0524,-1.0484,-1.048,-1.0432,-1.0423,-1.0394,-1.0394,-1.0389,-1.0375,-1.0368,-1.038,-1.0382,-1.0375,-1.0372,-1.0349,-1.0349,-1.0349,-1.0348,0,-1.0733,-1.0697,-1.0694,-1.0653,-1.0642,-1.0648,-1.0612,-1.061,-1.0583,-1.0578,-1.0574,-1.0532,-1.0518,-1.0481,-1.0458,-1.0439,-1.0447,-1.0433,-1.0457,-1.0453,-1.0474,-1.0473,-1.0548,-1.0556,-1.0468,-1.0469,-1.047,0,-1.0771,-1.0774,-1.0733,-1.0726,-1.071,-1.07,-1.069,-1.0648,-1.0639,-1.0608,-1.061,-1.0594,-1.0579,-1.056,-1.0527,-1.051,-1.0495,-1.0522,-1.0492,-1.0504,-1.0497,-1.0498,-1.0499,-1.053,-1.0531,-1.0532,-1.0533,0,-1.0842,-1.0824,-1.081,-1.0791,-1.078,-1.0762,-1.0743,-1.074,-1.0693,-1.0685,-1.0671,-1.0659,-1.0636,-1.062,-1.0597,-1.0578,-1.0548,-1.0542,-1.0546,-1.0559,-1.0573,-1.0567,-1.0477,-1.0541,-1.054,-1.054,-1.0539,-1.0539,-1.0899,-1.09,-1.0871,-1.0858,-1.0839,-1.0821,-1.0818,-1.0791,-1.0778,-1.0756,-1.0732,-1.0721,-1.0694,-1.066,-1.0643,-1.0634,-1.0618,-1.0623,-1.0624,-1.0627,-1.0633,-1.0574,-1.0629,-1.0629,-1.0629,-1.0629,-1.0628,0,-1.0969,-1.0948,-1.0936,-1.091,-1.09,-1.0872,-1.0848,-1.0842,-1.0833,-1.0809,-1.0795,-1.078,-1.0764,-1.073,-1.0712,-1.0711,-1.0697,-1.0708,-1.0708,-1.0705,-1.0648,-1.0647,-1.072,-1.072,-1.072,-1.072,-1.072,-1.072,-1.1004,-1.1004,-1.0983,-1.0973,-1.0952,-1.0941,-1.093,-1.0914,-1.0895,-1.088,-1.0867,-1.0845,-1.0817,-1.0796,-1.0781,-1.0771,-1.0767,-1.0783,-1.0769,-1.0717,-1.0708,-1.07,-1.0699,-1.0782,-1.0782,-1.0827,-1.0827,-1.0828]},{"header":{"parameterUnit":"m.s-1","parameterCategory":1,"la1":30.2991,"la2":30.254,"lo1":-89.0895,"lo2":-89.0444,"dy":0.0017,"dx":0.0017,"nx":28,"ny":28,"refTime":"2024-08-21T09:00:00:Z","depth":0,"parameterNumber":3,"parameterNumberName":"V-component_of_WINDS"},"data":[0,0,0,0,0,0,0,0,0,0,0,0,0,0,0,0,0,0,0,0,0,0,0,0,0,0,0,0,0,0,0,0,0,0,0,0,0,0,0,0,0,0,0,0,0,0,0,0,0,0,0,0,0,0,0,0,0,0,-0.8929,-0.8929,0,-0.8941,-0.8941,-0.8941,-0.8965,-0.8966,-0.8966,-0.8967,-0.898,-0.898,-0.898,0,0,0,0,0,0,0,0,0,0,0,0,0,-0.8929,-0.8928,-0.8929,-0.8929,-0.8929,-0.8941,-0.8941,-0.8941,-0.8965,-0.8966,-0.8967,-0.8967,-0.898,-0.898,-0.898,0,0,0,0,0,0,0,0,0,0,0,0,0,-0.8933,-0.8928,-0.8929,-0.8943,-0.8944,-0.8941,-0.8941,-0.8941,-0.8965,-0.8966,-0.8967,-0.8967,-0.898,-0.898,-0.898,-0.8964,0,0,-0.8979,-0.8979,0,0,0,0,0,0,0,0,-0.8933,-0.8933,-0.894,-0.8942,-0.8943,-0.8952,-0.8946,-0.8949,-0.8965,-0.8957,-0.8967,-0.8968,-0.897,-0.8971,-0.8972,-0.8965,-0.8965,-0.8979,-0.8979,-0.8979,-0.8979,0,0,0,0,0,0,0,-0.8933,-0.8933,-0.8934,-0.894,-0.8942,-0.8949,-0.895,-0.8946,-0.8959,-0.8958,-0.896,-0.8961,-0.8971,-0.8972,-0.8972,-0.8966,-0.8979,-0.8979,-0.8979,-0.8979,-0.895,-0.8949,0,0,0,0,0,0,-0.893,-0.8933,-0.8933,-0.8934,-0.894,-0.8948,-0.895,-0.8949,-0.896,-0.8962,-0.896,-0.8962,-0.8972,-0.8972,-0.8973,-0.8957,-0.8979,-0.8979,-0.8979,-0.895,-0.895,-0.8949,0,0,0,0,0,0,-0.893,-0.893,-0.8933,-0.8934,-0.8935,-0.8947,-0.8946,-0.8949,-0.8949,-0.8961,-0.8964,-0.8958,-0.8972,-0.8973,-0.8967,-0.8958,-0.8979,-0.8979,-0.8951,-0.895,-0.8949,-0.8925,0,0,0,0,0,0,-0.893,-0.893,-0.8923,-0.8933,-0.8934,-0.8926,-0.8945,-0.8948,-0.8949,-0.8951,-0.896,-0.8962,-0.8973,-0.8967,-0.8967,-0.8958,-0.8978,-0.8952,-0.8951,-0.895,-0.8927,-0.8924,-0.8921,0,0,0,0,0,-0.893,-0.8916,-0.8923,-0.8923,-0.8927,-0.8925,-0.8926,-0.8938,-0.8948,-0.8942,-0.895,-0.8962,-0.8959,-0.8966,-0.8966,-0.8957,-0.8953,-0.8951,-0.895,-0.8928,-0.8924,-0.8921,0,0,0,0,0,0,-0.8904,-0.8917,-0.8925,-0.8914,-0.8918,-0.8929,-0.8923,-0.8933,-0.8935,-0.8937,-0.8952,-0.8954,-0.8946,-0.8951,-0.8959,-0.8944,-0.8958,-0.8956,-0.8942,-0.8938,-0.8935,-0.8934,-0.8978,0,0,0,0,0,-0.8897,-0.8895,-0.8906,-0.8895,-0.8897,-0.8909,-0.8909,-0.8918,-0.8923,-0.8925,-0.8933,-0.8938,-0.8938,-0.8938,-0.8939,-0.8928,-0.8931,-0.8922,-0.8919,-0.8916,-0.8915,-0.8912,-0.8908,-0.8944,-0.8944,-0.8944,0,0,-0.8883,-0.889,-0.8887,-0.889,-0.8895,-0.8893,-0.8911,-0.8907,-0.8906,-0.8925,-0.892,-0.8926,-0.8933,-0.8925,-0.8921,-0.8928,-0.8906,-0.8914,-0.8912,-0.8912,-0.891,-0.8906,-0.8903,-0.8943,-0.8943,-0.8943,0,0,-0.8856,-0.886,-0.8852,-0.8857,-0.8864,-0.8872,-0.887,-0.888,-0.8885,-0.888,-0.8895,-0.8894,-0.8894,-0.8899,-0.8901,-0.8878,-0.889,-0.8878,-0.8862,-0.8859,-0.8856,-0.8854,-0.8847,-0.8844,-0.8876,-0.8876,-0.8876,0,-0.8837,-0.8834,-0.8847,-0.8843,-0.8845,-0.8862,-0.8856,-0.8859,-0.8866,-0.8867,-0.8875,-0.8877,-0.8882,-0.8876,-0.8871,-0.8872,-0.8871,-0.8877,-0.8855,-0.8853,-0.8851,-0.8845,-0.8842,-0.8875,-0.8875,-0.8875,-0.8875,0,-0.8812,-0.881,-0.8803,-0.881,-0.8811,-0.8805,-0.8818,-0.8818,-0.8827,-0.8835,-0.8832,-0.8839,-0.8843,-0.8842,-0.885,-0.8838,-0.8843,-0.8852,-0.8866,-0.8846,-0.8841,-0.8839,-0.8873,-0.8874,-0.8874,-0.8874,0,0,-0.8769,-0.8784,-0.8781,-0.8786,-0.8795,-0.8794,-0.879,-0.8794,-0.8794,-0.8799,-0.8797,-0.8797,-0.8807,-0.881,-0.8819,-0.8816,-0.88,-0.8827,-0.8827,-0.8823,-0.8789,-0.8783,-0.878,-0.8807,-0.8807,-0.8806,-0.8789,0,-0.8745,-0.874,-0.8752,-0.8744,-0.8743,-0.876,-0.8757,-0.8763,-0.8771,-0.8772,-0.8781,-0.8781,-0.8793,-0.8795,-0.8793,-0.8802,-0.8794,-0.8804,-0.8807,-0.8807,-0.8806,-0.8777,-0.8769,-0.8753,-0.8787,-0.8787,-0.8786,0,-0.8717,-0.8721,-0.8713,-0.8725,-0.8725,-0.8722,-0.8728,-0.8728,-0.8736,-0.8742,-0.8746,-0.8757,-0.8755,-0.8768,-0.8767,-0.8774,-0.8776,-0.8781,-0.878,-0.8782,-0.8796,-0.8779,-0.8747,-0.8745,-0.8783,-0.8783,-0.8783,0,-0.8689,-0.8692,-0.8688,-0.8691,-0.8704,-0.8702,-0.8708,-0.8716,-0.8718,-0.8723,-0.8725,-0.873,-0.8732,-0.8736,-0.8749,-0.8757,-0.8747,-0.876,-0.8753,-0.8753,-0.8751,-0.8751,-0.8721,-0.875,-0.875,-0.875,-0.875,0,-0.8663,-0.8657,-0.8676,-0.8674,-0.8669,-0.8683,-0.8678,-0.8686,-0.8693,-0.8694,-0.8708,-0.8708,-0.8725,-0.8727,-0.8737,-0.8736,-0.8736,-0.8742,-0.8745,-0.8742,-0.8741,-0.8744,-0.8746,-0.875,-0.875,-0.875,-0.875,0,-0.8631,-0.8643,-0.864,-0.8653,-0.8657,-0.8653,-0.8664,-0.8663,-0.8672,-0.8673,-0.8674,-0.8688,-0.8691,-0.8705,-0.8711,-0.8718,-0.8714,-0.8719,-0.8711,-0.8714,-0.8706,-0.8707,-0.8678,-0.8675,-0.8705,-0.8704,-0.8704,0,-0.8614,-0.861,-0.8624,-0.8625,-0.863,-0.8631,-0.8634,-0.8649,-0.8651,-0.8661,-0.8659,-0.8664,-0.8668,-0.8673,-0.8685,-0.869,-0.8696,-0.8685,-0.8697,-0.8694,-0.8698,-0.8699,-0.8699,-0.8683,-0.8683,-0.8682,-0.8682,0,-0.8583,-0.859,-0.8593,-0.8598,-0.8601,-0.8606,-0.8612,-0.8613,-0.8629,-0.8631,-0.8635,-0.8639,-0.8646,-0.8651,-0.8659,-0.8665,-0.8677,-0.8678,-0.8677,-0.8674,-0.8671,-0.8675,-0.8706,-0.8679,-0.8679,-0.868,-0.868,-0.868,-0.8559,-0.8558,-0.8568,-0.8571,-0.8577,-0.8583,-0.8583,-0.8593,-0.8596,-0.8604,-0.8612,-0.8615,-0.8625,-0.8637,-0.8642,-0.8646,-0.8652,-0.865,-0.865,-0.865,-0.8649,-0.8669,-0.8647,-0.8647,-0.8647,-0.8647,-0.8647,0,-0.8531,-0.8538,-0.8541,-0.855,-0.8553,-0.8563,-0.8571,-0.8573,-0.8576,-0.8584,-0.8589,-0.8594,-0.86,-0.8612,-0.8619,-0.8619,-0.8625,-0.8621,-0.8621,-0.8623,-0.8642,-0.8643,-0.8616,-0.8616,-0.8616,-0.8616,-0.8616,-0.8616,-0.8517,-0.8515,-0.8523,-0.8526,-0.8533,-0.8537,-0.8541,-0.8547,-0.8553,-0.8559,-0.8563,-0.8571,-0.8581,-0.8589,-0.8595,-0.8599,-0.8601,-0.8596,-0.8601,-0.8619,-0.8622,-0.8624,-0.8626,-0.8596,-0.8596,-0.8582,-0.8582,-0.8582]}]]